GFSFLT2_850_spd_084.txt.gz
Wind_Speed
12 12 12 12 16 19 20 20 20 19 23 25 19 32 28 26 28 31 27 26 31 34 34 35 32 26 20 18 18 14 11 12
15 15 13 12 15 18 16 17 18 20 22 27 26 29 30 30 31 30 24 25 32 34 37 36 31 25 20 20 16 11 8 14
10 15 13 11 12 18 18 17 17 19 20 28 40 25 36 33 31 27 22 25 33 36 39 35 29 23 21 20 15 10 8 16
7 14 15 15 13 15 16 19 16 14 22 30 38 38 41 37 32 27 22 27 34 37 37 33 26 24 24 20 14 10 12 17
7 11 17 14 13 11 15 19 20 16 8 30 42 44 43 40 35 30 27 30 36 36 37 35 26 26 25 21 14 13 13 13
7 11 16 15 13 12 13 17 18 17 11 24 42 48 45 41 36 31 30 36 36 36 41 37 32 24 22 21 17 13 9 7
8 12 12 14 14 15 15 17 19 15 10 32 46 47 42 39 34 31 32 36 36 39 44 40 35 22 20 21 18 13 8 5
10 11 13 14 15 17 19 19 22 19 16 33 40 42 40 35 32 33 35 35 35 39 43 41 37 24 22 20 15 13 7 6
13 13 15 15 15 20 21 23 24 25 30 36 39 41 36 35 36 36 35 35 37 40 42 40 37 24 20 18 15 14 9 7
15 14 16 13 14 15 18 24 27 29 37 41 44 41 37 30 34 34 36 36 37 40 43 41 37 29 20 17 17 15 11 9
16 15 18 15 13 13 14 16 18 26 35 38 42 42 36 36 35 33 34 36 37 40 45 41 36 29 21 18 18 15 11 10
15 14 19 17 15 17 12 13 16 19 29 36 44 43 39 38 37 35 37 39 38 38 39 37 34 28 24 19 18 14 14 11
19 16 21 21 20 21 19 15 16 24 33 37 48 44 40 39 39 37 38 41 37 36 33 30 27 28 28 20 17 15 14 13
20 17 20 24 23 21 22 17 17 24 29 32 44 39 39 39 37 38 38 42 37 36 32 31 29 31 34 29 21 17 18 18
22 19 18 26 24 23 22 18 19 22 29 30 42 40 40 42 38 39 39 41 36 35 34 33 34 34 31 28 15 11 22 24
23 20 17 22 28 26 28 27 28 26 29 36 38 38 37 37 38 37 40 39 38 35 35 35 35 37 35 31 25 16 16 16
26 21 18 21 27 29 27 28 28 22 26 34 36 37 38 39 39 41 39 40 40 38 39 38 38 38 37 35 30 23 17 18
27 24 20 23 26 29 31 30 29 29 31 33 37 40 42 40 37 39 37 38 42 38 39 36 38 39 39 40 38 33 24 22
29 27 24 24 27 31 32 31 30 30 32 39 40 44 46 45 43 44 40 38 36 39 40 43 42 39 40 42 39 38 32 27
31 29 26 25 26 31 33 34 33 29 31 34 42 42 43 45 47 45 42 38 38 38 42 43 41 40 41 40 41 38 36 36

GFSFLT2_850_spd_087.txt.gz
Wind_Speed
9 11 12 15 17 21 24 25 27 25 27 20 21 26 28 29 27 25 27 28 29 34 32 30 29 26 24 21 18 15 17 19
9 13 14 13 17 18 21 22 22 21 21 18 23 20 25 29 29 30 30 28 33 34 32 30 27 23 21 20 17 14 14 17
10 14 14 14 14 18 20 21 22 21 20 19 24 25 27 28 33 31 30 30 35 34 33 31 26 21 17 19 14 12 12 17
8 12 15 14 16 17 20 22 22 23 24 24 29 28 30 24 32 32 30 33 36 36 34 31 26 22 21 17 12 10 12 17
6 10 14 18 19 18 20 21 20 21 20 23 29 35 33 33 35 35 30 34 38 39 37 32 26 23 23 18 12 10 15 19
7 9 15 18 16 17 16 18 21 23 19 17 32 42 40 38 41 37 32 38 39 41 37 31 25 22 21 19 13 13 16 15
9 8 13 15 15 17 18 18 21 21 22 10 24 35 47 41 45 39 34 41 41 42 36 30 26 25 23 19 15 14 11 10
12 10 12 14 17 18 18 19 20 23 23 18 29 33 47 47 42 40 35 41 42 41 39 32 28 25 23 21 15 13 9 7
16 11 12 14 16 18 19 19 20 23 17 17 31 39 45 43 41 38 35 39 41 40 40 33 28 22 22 21 16 12 9 7
18 14 14 15 16 18 20 21 22 23 21 20 32 39 42 41 42 36 34 40 41 42 43 36 30 24 26 21 17 14 11 7
20 17 15 16 16 16 18 22 23 24 23 26 27 34 38 38 35 35 36 39 40 44 44 39 31 28 25 20 17 15 12 9
21 19 17 17 15 16 17 19 20 22 25 35 32 32 39 35 33 33 35 38 41 45 44 38 34 28 23 19 18 14 12 9
24 22 19 19 19 18 18 18 17 19 24 31 37 36 38 40 33 32 34 39 41 43 43 40 32 27 24 20 20 16 14 11
27 24 20 18 18 19 21 18 17 18 21 25 38 41 40 41 37 37 37 39 41 43 46 42 34 29 26 27 20 18 18 17
29 25 20 19 18 18 17 19 16 19 21 26 26 37 43 37 37 36 36 39 41 41 44 43 39 32 29 23 14 10 21 21
29 25 21 20 21 23 23 23 23 24 24 27 30 38 42 37 36 38 36 40 39 38 38 39 35 35 34 34 22 13 14 15
31 26 23 21 23 23 23 25 24 22 23 25 22 38 35 36 36 40 42 38 40 35 34 37 34 35 39 38 32 24 19 17
32 28 24 22 25 25 26 27 27 25 24 27 28 32 35 34 37 35 36 37 43 39 36 40 37 36 37 37 37 36 32 24
35 31 28 24 25 27 29 29 28 28 23 24 32 34 36 35 33 38 39 40 43 41 41 41 40 40 38 37 38 38 36 29
38 33 30 26 25 26 27 30 28 27 25 23 27 31 34 36 36 38 38 39 39 40 40 42 44 40 37 39 40 38 38 38

GFSFLT2_850_spd_090.txt.gz
Wind_Speed
7 9 13 15 17 21 22 22 24 25 25 26 24 29 23 17 28 29 27 21 25 28 28 27 26 25 24 22 21 19 17 17
8 10 13 17 18 20 22 22 28 27 28 26 25 24 24 26 22 26 23 26 29 30 29 29 26 25 22 20 19 17 16 17
9 12 16 17 18 20 22 24 25 24 25 29 27 27 25 24 30 26 28 29 32 33 32 29 27 23 21 19 16 15 15 16
11 13 15 15 18 18 21 22 24 23 25 27 25 25 24 23 28 28 28 31 33 34 33 30 27 24 22 18 15 13 14 15
11 12 14 16 18 20 21 24 26 26 25 25 24 25 26 26 32 33 33 33 33 35 34 30 27 24 21 19 14 12 13 16
13 12 15 16 19 20 19 23 24 25 23 26 26 28 30 30 35 33 31 33 37 38 34 32 26 22 21 18 13 11 15 17
16 13 15 16 18 21 19 20 20 21 22 23 25 31 30 36 33 35 34 37 38 37 34 31 27 22 22 17 12 12 14 15
20 15 15 16 17 18 18 19 18 20 25 25 21 26 29 42 37 36 31 38 39 38 38 32 27 23 22 17 13 13 12 12
24 18 17 16 16 17 17 18 19 21 25 25 25 27 30 45 41 39 36 36 40 40 37 32 26 24 23 19 15 11 9 9
24 21 18 17 17 17 18 18 18 20 25 23 24 29 35 49 42 39 38 35 41 41 37 32 29 27 25 22 18 14 10 10
26 25 21 18 18 17 17 19 19 20 21 22 17 26 35 40 39 39 37 36 42 42 38 34 30 26 24 23 19 15 11 10
28 26 23 19 19 18 18 17 20 19 18 19 18 20 24 31 35 36 37 38 43 43 41 35 31 28 27 25 19 16 12 9
33 29 25 22 21 20 19 18 20 21 18 23 21 21 26 33 31 34 33 33 44 43 41 37 32 30 29 25 20 19 15 11
35 31 26 22 21 20 17 17 17 15 15 20 25 28 25 35 29 30 29 33 41 41 42 39 33 32 32 27 21 18 18 17
37 32 27 23 19 19 17 18 16 16 18 18 21 33 28 40 35 32 32 34 35 39 44 41 37 35 32 22 14 9 20 19
37 32 27 24 21 20 19 21 24 19 19 21 21 23 31 38 39 42 36 41 35 36 43 41 38 38 30 29 21 14 14 14
39 32 27 24 22 20 19 18 20 20 19 20 18 19 24 34 38 37 34 41 37 37 40 44 38 38 37 30 25 21 16 18
39 34 30 25 23 22 22 19 21 20 20 22 22 22 31 29 38 33 35 38 41 42 37 39 42 37 35 35 34 34 31 23
41 36 33 26 23 23 22 21 21 21 21 23 23 27 29 28 31 31 32 39 42 42 41 38 37 37 35 36 36 39 35 30
43 38 35 28 24 23 23 22 23 24 22 23 23 27 29 34 30 26 28 34 38 40 39 38 39 45 41 39 37 39 36 36

GFSFLT2_850_spd_093.txt.gz
Wind_Speed
9 10 13 14 15 18 19 19 21 23 25 28 30 31 29 23 22 15 18 19 19 18 22 23 24 24 21 21 18 20 21 19
11 12 14 17 19 20 20 21 21 23 25 28 29 29 28 27 31 29 25 26 25 22 25 23 25 24 23 21 19 19 17 15
13 13 14 17 18 20 20 20 23 25 26 27 29 28 25 27 27 25 25 29 26 27 24 25 26 25 23 21 19 18 16 14
14 15 14 18 19 22 22 23 25 29 29 29 30 30 28 28 27 22 24 26 28 26 26 28 27 27 24 20 18 15 14 14
15 15 15 19 21 23 23 25 28 27 29 31 31 32 27 25 22 27 26 27 28 27 30 31 31 28 25 21 17 15 14 15
16 16 18 19 21 21 23 25 27 27 29 31 32 33 30 27 28 31 29 29 33 32 36 33 30 26 23 20 16 13 15 15
19 17 18 19 21 24 20 23 26 27 29 29 31 31 29 30 29 33 32 31 33 36 36 33 29 25 22 18 14 12 15 16
22 19 19 19 19 23 23 21 22 23 25 27 28 28 28 32 32 34 34 29 32 34 36 34 29 24 22 18 12 12 15 17
27 22 22 20 19 20 21 20 21 22 21 24 26 26 27 33 35 38 38 34 27 35 37 34 28 24 22 19 14 14 15 15
29 26 24 21 21 20 20 21 21 22 23 24 27 27 28 34 35 39 38 37 36 37 39 33 29 26 25 21 19 17 15 14
34 30 27 24 22 21 20 21 20 20 22 22 28 28 31 35 35 38 40 37 40 41 40 34 31 28 26 22 20 17 15 14
34 32 30 27 24 22 22 21 22 21 21 21 22 28 32 33 37 45 38 41 39 43 39 35 31 29 28 24 21 19 16 14
38 37 33 30 27 25 25 22 22 22 23 19 16 17 25 24 48 38 41 41 40 43 41 36 33 30 29 25 22 19 17 14
39 39 35 32 28 24 23 18 21 21 17 15 18 21 13 22 27 37 35 37 39 43 41 38 35 33 27 24 16 17 20 18
40 39 36 33 28 25 21 18 17 19 19 17 18 17 17 20 28 26 31 32 34 41 41 41 38 34 32 21 12 10 21 22
39 40 36 33 29 26 22 19 22 23 19 19 20 21 27 26 31 26 28 32 34 41 41 39 37 37 34 30 24 14 13 12
40 40 37 34 30 26 21 20 20 20 16 18 22 15 30 28 37 33 30 32 31 36 38 38 38 38 40 36 24 19 14 12
40 39 38 35 31 27 22 19 18 21 20 18 20 20 22 32 37 39 36 36 37 36 34 34 37 41 40 37 33 29 22 20
39 39 38 35 31 28 21 17 16 19 20 21 21 20 24 20 27 41 41 37 36 43 42 43 42 44 40 39 37 34 27 21
41 41 39 36 30 28 22 18 18 18 15 20 21 24 22 19 26 26 39 35 34 38 43 39 41 43 39 36 36 34 29 30

GFSFLT2_850_spd_096.txt.gz
Wind_Speed
12 9 8 10 11 15 16 19 18 19 21 24 27 27 28 27 23 14 15 19 15 16 17 19 22 21 19 17 17 17 15 14
14 11 9 10 12 16 17 17 19 20 21 23 24 26 28 27 24 15 21 20 20 16 19 21 23 23 20 18 18 18 13 13
16 13 11 12 14 16 17 18 19 21 21 23 25 24 25 26 29 21 25 16 19 24 22 24 24 23 21 19 16 14 13 10
18 15 13 14 18 18 18 19 21 22 23 26 26 25 26 24 25 23 19 21 22 23 23 23 24 25 22 19 16 12 11 10
21 18 15 15 18 19 22 23 24 26 26 27 26 24 25 29 25 23 26 23 23 25 26 23 26 25 24 20 13 13 10 11
24 20 18 16 15 21 22 25 26 27 30 30 30 31 29 29 28 19 20 24 24 25 27 25 26 24 21 17 14 12 12 11
27 23 20 19 19 21 23 24 26 26 31 31 32 33 32 32 25 20 25 28 27 26 28 29 28 21 19 17 15 13 14 14
27 27 22 22 21 23 23 23 24 26 30 31 33 32 31 30 28 26 29 29 27 30 32 28 25 19 18 17 13 12 14 14
26 29 25 24 22 22 24 24 23 22 26 27 32 35 33 31 31 28 29 30 28 28 32 26 22 19 18 17 14 13 15 16
25 30 29 26 25 22 23 23 27 25 25 24 25 28 29 26 28 31 32 32 32 32 34 26 23 20 19 17 14 13 15 15
26 30 32 29 27 24 22 23 26 25 25 27 27 28 29 28 30 32 33 36 34 36 32 33 24 22 20 18 15 14 15 14
25 28 33 32 29 26 24 25 26 27 25 24 25 26 29 31 31 32 38 39 41 36 39 36 27 23 21 18 15 15 15 14
26 29 34 35 33 30 28 27 26 27 25 23 23 23 28 29 30 35 38 38 41 38 39 33 29 26 22 20 16 15 14 12
26 32 37 38 35 32 29 26 27 24 24 23 24 23 20 24 35 44 44 38 39 45 38 32 33 29 27 22 14 13 14 15
27 32 38 38 34 32 28 21 22 21 22 21 23 17 18 11 27 39 42 45 44 46 40 34 34 30 24 22 14 12 17 16
25 33 38 38 37 32 29 23 20 20 20 20 21 14 15 12 25 44 43 40 44 43 43 36 35 29 24 23 17 15 21 11
23 33 35 38 37 32 27 19 15 15 16 20 21 17 19 16 20 21 24 31 36 37 41 37 34 32 32 28 22 16 14 12
26 34 35 38 37 34 27 21 16 17 20 20 22 21 22 23 25 27 27 30 32 34 37 41 37 34 31 31 25 22 21 18
28 34 36 39 38 34 29 22 19 17 19 22 24 25 22 24 32 34 30 29 30 29 30 37 37 33 35 33 27 25 21 23
30 34 35 38 38 34 29 21 20 17 18 20 21 23 21 22 29 33 37 37 35 34 34 34 39 41 38 36 31 30 27 20

GFSFLT2_850_spd_099.txt.gz
Wind_Speed
13 10 7 7 7 8 12 14 14 15 16 17 20 22 22 23 24 21 18 17 14 15 14 11 12 17 17 16 18 16 12 14
15 12 9 8 8 9 12 15 16 16 17 18 19 21 22 24 22 18 14 11 15 18 26 22 21 19 18 16 19 16 13 10
17 14 11 8 9 9 12 15 16 18 18 18 19 21 24 25 23 25 15 15 16 11 14 19 22 20 19 17 19 13 13 14
19 16 13 11 9 12 13 14 16 18 20 21 21 22 23 23 26 28 15 15 14 11 14 19 19 22 22 19 18 13 16 9
19 18 15 12 12 12 12 14 16 18 19 20 23 20 22 23 24 22 19 17 14 16 20 22 24 24 25 22 16 19 11 12
20 21 19 14 13 13 15 16 19 20 22 20 21 23 22 22 19 17 21 21 20 20 22 22 23 25 26 23 19 12 11 11
22 22 23 20 17 14 19 19 23 24 24 26 23 21 24 24 20 20 23 20 21 23 22 27 25 25 23 21 16 14 14 11
23 24 26 22 17 17 17 20 16 21 25 28 30 30 27 23 22 22 22 20 23 22 23 30 28 25 23 19 16 14 14 11
25 26 27 26 22 19 18 19 17 17 23 26 30 32 31 30 28 24 24 22 24 23 25 27 27 25 21 18 16 15 14 15
24 23 27 30 28 24 19 17 19 18 17 22 27 29 31 32 31 30 29 28 26 25 27 28 29 25 22 18 16 14 15 16
25 26 25 31 30 29 25 23 21 23 19 20 25 28 28 29 29 27 30 30 30 29 28 34 30 26 24 21 16 15 16 16
25 26 26 28 32 31 28 27 25 24 22 24 20 25 27 27 25 28 29 32 32 30 29 38 31 27 22 23 18 19 18 18
24 27 28 31 34 37 33 31 28 26 26 20 18 21 24 28 27 32 35 29 34 32 34 36 31 28 25 24 19 17 20 20
26 28 29 35 36 37 31 29 27 21 22 20 20 22 24 25 26 34 37 34 40 36 44 39 32 30 29 26 17 16 18 17
28 28 29 38 34 26 22 18 20 19 22 20 22 26 24 23 22 32 31 39 41 41 46 40 36 34 33 25 16 12 18 18
25 28 29 41 29 27 27 24 22 18 17 16 24 24 23 23 22 29 39 39 42 39 49 43 39 38 31 19 17 15 19 12
25 27 30 43 31 29 29 24 18 14 15 19 21 22 17 17 13 18 34 45 47 38 45 43 36 37 35 28 21 16 21 19
26 27 33 40 33 33 29 25 19 17 16 19 22 20 21 16 13 24 37 39 33 40 44 41 38 33 33 27 25 19 18 16
26 26 32 33 37 33 30 24 21 18 17 21 24 24 22 21 19 20 29 34 33 42 42 39 35 33 32 27 25 22 17 17
26 29 29 29 38 32 28 25 20 17 17 22 22 26 26 24 24 24 23 19 24 30 35 37 38 34 30 29 29 27 24 22

GFSFLT2_850_spd_102.txt.gz
Wind_Speed
11 10 7 4 3 4 8 11 13 14 13 12 14 16 15 16 17 17 14 14 9 12 10 7 17 14 13 14 14 16 12 13
13 11 8 5 4 5 8 11 14 14 13 13 14 15 16 18 17 16 14 12 11 11 7 12 17 16 17 14 14 13 10 10
16 13 9 7 6 6 8 11 14 14 14 15 14 16 19 19 18 18 16 15 11 8 10 14 17 17 20 17 15 12 14 14
18 16 13 9 9 7 8 12 13 15 16 16 16 17 19 20 23 21 21 15 13 14 11 13 18 21 25 19 17 16 16 16
19 17 16 14 11 7 9 10 13 15 16 17 19 17 17 20 23 25 24 17 18 15 15 14 18 21 23 22 22 17 16 14
20 18 19 16 15 12 9 8 12 15 16 17 19 19 20 23 24 22 24 21 18 18 18 16 23 20 24 24 22 18 20 18
22 23 21 21 20 16 16 17 16 16 17 20 19 22 20 21 22 19 18 20 20 20 20 20 21 25 28 26 25 21 16 17
24 25 22 25 25 21 17 17 18 20 21 22 22 21 20 21 24 23 22 20 20 20 23 21 22 25 26 26 24 16 19 11
28 25 26 26 25 21 20 17 15 17 19 24 25 25 26 22 21 24 22 19 18 20 21 22 24 27 26 26 26 20 14 9
31 27 28 25 28 25 25 18 18 20 18 17 24 27 31 30 28 27 24 23 22 21 23 23 26 30 28 27 24 24 22 10
32 31 29 26 31 28 28 22 20 21 17 18 20 22 26 30 31 30 25 24 25 25 26 26 30 30 28 23 21 20 23 18
28 30 28 29 30 32 30 25 26 22 25 23 19 22 23 27 28 29 30 28 30 29 28 28 33 31 27 23 23 21 22 19
20 29 31 32 28 36 34 35 32 27 25 22 25 22 19 21 25 26 28 30 30 33 32 33 33 33 29 25 23 23 24 23
21 22 31 29 33 30 36 33 32 28 25 24 24 20 18 21 23 26 26 29 29 35 36 34 35 36 32 29 20 21 23 23
31 30 28 30 36 31 31 27 26 26 24 22 23 23 23 26 22 23 25 28 32 37 37 39 40 40 34 32 20 11 25 23
18 31 27 33 37 36 32 30 32 31 28 24 24 25 27 26 24 23 26 29 39 38 37 35 44 42 33 26 23 26 25 16
23 25 30 33 40 39 30 30 27 24 23 19 23 26 24 24 25 25 27 29 37 35 41 43 46 41 40 30 25 18 19 24
22 24 32 34 41 38 31 33 26 23 21 25 29 23 23 21 20 22 26 33 35 35 40 42 45 40 41 33 28 27 23 22
19 21 31 33 39 36 33 34 29 24 26 29 27 24 22 22 17 18 17 21 34 41 38 39 51 44 40 38 30 25 20 21
26 17 30 34 37 34 33 32 31 26 29 25 26 19 20 19 19 15 14 17 23 34 35 43 39 38 32 31 28 26 25 20

GFSFLT2_850_spd_105.txt.gz
Wind_Speed
15 13 10 6 2 4 7 10 12 13 13 13 13 14 14 15 16 16 13 14 13 12 10 12 18 16 19 20 13 15 15 15
17 15 12 8 4 5 8 11 12 13 13 13 13 13 15 16 17 16 13 14 13 10 8 6 18 21 23 21 13 14 12 14
19 17 14 10 7 7 8 11 13 14 14 13 13 14 15 16 17 15 14 15 16 13 6 10 16 19 21 21 15 15 15 14
21 19 16 14 10 7 8 11 13 14 15 15 15 15 15 17 16 16 16 16 15 14 13 14 14 20 21 19 20 16 17 16
23 20 18 17 13 9 9 11 14 15 16 16 17 16 17 19 20 20 21 20 17 17 18 16 17 25 23 27 23 19 19 16
23 21 21 19 16 13 9 11 14 16 17 17 18 18 19 20 22 23 24 24 21 20 18 16 15 19 22 29 22 19 20 19
23 22 23 23 21 17 13 11 12 14 19 18 18 19 20 21 22 25 25 24 23 22 20 18 17 20 22 27 24 21 21 20
25 26 23 25 24 21 17 14 13 15 17 18 18 18 21 21 22 23 22 22 23 23 20 20 21 22 24 28 28 24 22 19
35 29 25 25 27 25 22 18 19 17 17 18 21 22 22 22 22 25 25 22 20 21 22 22 19 21 25 28 27 23 24 23
38 35 29 26 26 28 26 23 20 19 18 18 21 24 25 23 22 23 23 23 22 23 21 24 19 23 27 28 29 24 23 22
35 36 35 30 27 28 29 25 22 21 19 17 17 24 27 27 26 25 22 25 26 26 25 25 25 27 29 29 31 23 25 20
34 37 36 34 29 29 29 26 24 23 22 21 17 20 27 30 32 32 28 30 27 26 25 23 25 29 32 30 33 26 23 20
33 36 38 37 32 33 32 33 29 25 27 23 21 19 20 25 28 32 33 33 32 29 28 26 29 30 32 31 31 26 22 19
31 34 37 37 32 30 29 32 32 28 30 28 26 25 22 21 23 28 29 30 30 32 30 31 34 35 36 32 23 26 29 24
23 31 35 34 31 28 28 32 29 29 33 36 33 28 24 25 24 24 26 26 29 30 36 39 39 41 40 33 25 20 32 25
9 28 33 34 34 33 31 34 34 38 37 34 31 28 29 26 25 25 25 27 29 30 35 39 44 44 42 38 30 32 35 23
2 6 17 32 32 32 31 32 30 31 31 30 27 27 28 30 29 28 27 28 28 30 36 38 50 45 49 40 29 23 36 29
10 11 11 7 36 36 35 34 30 28 29 27 30 30 32 33 30 28 27 27 29 30 34 46 42 45 46 46 32 30 36 27
21 21 18 12 31 38 37 35 32 30 29 27 32 33 32 30 28 27 26 25 27 25 43 33 38 38 46 46 37 30 24 23
27 33 29 14 24 38 36 34 31 30 28 28 29 29 29 27 25 22 20 20 20 25 38 35 34 42 46 46 38 35 24 23

GFSFLT2_850_spd_108.txt.gz
Wind_Speed
20 17 15 11 6 6 8 11 14 17 19 19 18 17 17 16 17 17 16 14 12 12 15 11 13 14 19 21 17 16 16 16
20 19 16 12 8 7 9 11 14 16 18 18 18 18 17 18 17 17 16 15 15 18 13 12 15 19 23 23 15 14 15 17
21 21 18 14 11 9 10 12 14 16 17 17 18 20 20 18 17 17 16 17 18 13 13 9 13 18 21 23 18 18 16 16
22 22 20 18 14 12 11 13 15 16 17 18 18 20 20 19 18 17 16 17 18 16 12 14 16 19 21 21 17 18 18 17
23 23 22 21 18 14 13 15 17 18 18 19 19 21 22 21 21 21 20 19 20 19 15 17 19 18 24 24 22 20 19 18
24 25 25 23 20 17 14 15 17 19 19 20 21 23 23 23 24 24 23 22 22 21 18 16 17 18 25 25 24 24 22 20
23 26 27 26 24 20 18 17 17 18 20 21 22 22 23 23 23 24 23 23 23 22 20 18 18 20 27 26 27 27 23 22
24 27 26 26 26 24 21 19 17 18 19 21 22 23 23 23 24 25 25 24 23 22 22 20 20 21 22 26 30 28 25 21
31 28 28 28 27 27 25 21 20 19 18 21 22 23 24 23 24 25 24 23 24 23 24 23 22 22 22 24 30 28 26 22
32 34 34 31 28 28 28 25 23 19 18 21 23 23 23 24 25 25 24 25 25 24 25 24 24 25 25 30 28 31 29 23
30 36 41 36 32 30 30 28 26 22 21 21 21 24 25 26 25 23 23 26 28 25 24 24 24 24 23 27 30 30 29 24
35 32 40 43 38 36 33 30 28 25 25 24 22 23 27 28 27 25 24 26 27 26 26 26 25 23 23 26 29 30 29 25
40 37 38 48 45 41 39 37 34 32 29 27 24 22 26 29 29 28 28 29 30 29 28 27 29 27 27 28 28 30 32 29
42 44 39 46 48 43 40 39 35 31 29 28 26 25 25 27 29 31 33 33 33 32 32 31 30 30 33 30 21 26 31 31
35 41 41 46 48 46 42 38 32 30 30 32 31 29 27 27 27 29 31 34 37 38 38 36 35 33 35 28 19 11 34 36
18 27 34 40 43 45 44 40 38 35 32 32 34 32 30 29 27 27 27 29 33 36 38 39 38 36 38 40 31 25 35 19
15 13 20 26 36 41 41 40 37 33 31 32 33 34 34 33 31 29 28 28 29 32 36 37 39 40 42 46 36 24 35 38
7 8 10 9 25 32 37 38 38 34 30 29 32 32 37 35 33 31 30 30 30 31 35 37 38 42 43 46 44 38 41 37
12 8 9 11 14 32 36 39 39 34 33 29 29 28 34 37 35 35 33 31 31 30 35 36 39 44 50 45 47 40 46 36
19 19 16 19 18 24 40 41 43 41 35 31 28 26 28 32 33 34 29 30 28 33 35 34 33 39 53 45 49 39 42 39

GFSFLT2_850_spd_111.txt.gz
Wind_Speed
25 22 18 14 11 10 11 14 17 20 21 21 21 19 17 17 16 17 18 18 11 13 12 14 12 11 12 15 16 15 15 16
25 22 19 16 12 11 12 14 16 19 21 21 20 19 18 18 17 18 19 18 11 12 18 11 13 12 14 17 17 16 17 17
25 24 21 17 14 13 14 15 16 19 20 20 21 20 19 19 19 20 20 17 15 22 13 13 13 14 17 17 15 17 19 17
28 25 23 20 17 15 15 16 18 19 20 21 22 21 21 20 19 19 18 18 19 23 18 13 14 17 19 18 15 16 16 17
31 28 26 23 20 18 17 17 18 19 20 21 21 21 22 21 20 20 20 21 22 21 20 15 14 18 19 21 20 16 16 18
31 28 27 25 22 20 19 19 19 20 21 22 23 23 24 23 23 23 23 23 24 23 21 17 17 18 19 20 22 20 21 21
29 28 29 28 27 24 22 21 21 20 22 22 23 24 24 25 25 25 25 24 24 25 23 19 20 18 19 22 23 23 22 20
29 27 28 29 29 27 25 23 22 22 23 23 23 23 24 25 25 25 26 25 24 23 22 21 19 18 20 24 26 25 24 22
29 28 26 25 29 29 28 24 23 23 23 24 23 24 24 25 24 25 26 25 23 23 22 22 22 19 21 24 29 30 28 24
33 30 27 25 28 30 30 27 26 24 24 24 24 24 25 25 25 25 25 25 25 23 23 24 25 23 23 23 25 29 29 25
37 33 29 29 28 30 30 29 28 27 25 24 24 24 26 26 26 25 26 26 26 25 24 25 26 25 25 26 26 28 29 27
40 33 32 32 34 33 33 32 30 28 28 26 25 26 26 27 27 26 26 28 28 29 27 25 25 24 25 25 28 32 29 29
41 40 38 39 40 39 37 37 35 33 32 29 26 25 25 27 27 27 28 29 30 30 29 28 28 24 22 22 24 28 31 28
41 42 40 40 41 40 42 42 39 36 34 31 28 27 27 27 28 30 30 31 31 31 32 31 31 28 25 21 15 21 28 30
31 37 40 43 45 46 47 43 40 37 34 33 33 31 31 29 28 29 31 33 33 33 33 35 34 32 29 24 11 13 23 31
19 24 30 36 39 42 45 47 45 43 40 37 34 35 34 31 30 29 30 33 36 35 35 36 36 35 32 37 34 21 16 14
14 18 21 25 30 34 38 44 42 40 40 36 33 31 33 34 34 32 30 32 33 35 37 37 38 39 39 38 40 35 27 25
14 15 17 21 28 32 34 37 38 37 35 36 33 32 32 33 36 36 33 32 32 33 33 35 36 39 40 41 42 40 37 33
9 8 9 10 16 26 32 36 38 36 37 37 35 34 34 32 35 37 36 35 32 31 32 33 35 36 40 42 44 44 45 42
8 5 1 5 10 13 25 35 39 40 42 42 41 36 33 31 33 35 35 35 33 32 33 33 32 35 39 46 46 48 50 46

GFSFLT2_850_spd_114.txt.gz
Wind_Speed
29 28 25 21 19 17 17 17 18 20 21 22 21 19 17 16 15 15 16 15 14 14 13 11 11 11 12 13 14 14 14 14
30 31 27 23 20 18 17 18 19 20 21 22 21 19 17 16 16 16 17 17 15 15 11 11 11 11 12 13 14 14 14 13
31 30 27 23 20 19 19 19 19 20 21 22 21 20 19 18 18 18 18 19 15 14 14 12 10 11 13 14 14 15 17 15
34 32 28 25 21 21 20 21 21 22 23 24 22 20 19 19 18 19 21 19 14 15 19 13 12 13 14 16 15 15 17 14
37 34 31 27 24 22 21 21 21 21 23 23 22 21 20 20 20 21 22 21 18 21 19 15 13 14 15 17 15 14 16 15
39 35 31 28 25 23 22 21 21 22 23 23 23 23 22 21 22 22 23 22 21 22 20 17 14 13 15 19 19 15 17 17
39 35 32 29 27 25 23 22 21 21 22 23 23 24 23 23 23 23 23 23 22 22 21 19 16 15 16 18 20 20 19 19
40 35 32 31 30 27 24 22 21 22 22 22 23 23 23 23 24 23 23 24 22 23 21 20 17 16 16 17 19 21 22 19
41 36 34 32 31 28 27 24 23 23 23 22 23 23 23 24 23 23 23 23 23 23 24 23 20 20 18 18 20 22 23 22
44 38 33 30 31 30 30 27 25 25 24 23 23 23 24 24 24 23 23 22 24 24 25 25 24 24 22 19 21 23 24 24
48 41 35 32 31 31 30 29 28 27 26 25 24 24 25 25 25 24 23 23 25 25 25 25 25 25 25 22 23 23 24 25
50 43 38 36 36 33 33 31 30 29 27 28 26 26 26 26 26 25 25 26 27 27 27 26 25 24 25 24 23 24 25 24
51 48 43 42 41 38 36 36 33 32 30 30 29 27 27 27 27 27 27 28 28 27 26 27 27 25 24 22 23 23 27 28
46 49 47 45 43 41 39 38 36 34 33 33 31 28 27 28 28 28 28 29 30 30 30 30 30 29 25 21 15 23 22 26
39 44 43 42 44 42 42 38 36 37 37 33 32 32 30 28 28 28 29 30 31 30 30 33 33 32 30 21 8 13 21 26
24 36 37 33 36 40 42 42 42 41 40 37 35 35 30 29 30 29 30 32 34 32 30 30 30 32 28 28 28 22 13 13
17 24 30 32 30 33 36 38 40 39 38 39 36 31 31 30 31 32 31 32 35 33 32 32 33 33 34 35 32 32 27 23
16 17 25 25 26 29 31 33 35 38 38 35 34 32 31 32 33 34 34 33 33 33 34 34 34 34 36 36 38 35 38 32
12 13 18 21 23 29 30 31 32 33 36 35 27 37 37 36 33 34 33 35 35 34 34 34 34 35 35 37 38 40 40 40
13 10 10 11 16 23 29 30 33 33 34 36 37 35 35 33 32 31 32 31 33 37 36 36 33 33 34 35 38 39 40 44

GFSFLT2_850_spd_117.txt.gz
Wind_Speed
29 28 27 24 22 21 21 22 22 21 21 20 20 18 18 16 16 15 15 14 14 13 13 13 11 11 11 12 13 14 14 14
32 30 28 26 24 22 21 21 21 21 21 21 20 19 18 17 16 16 15 15 14 13 13 11 10 10 11 12 12 12 14 13
34 32 30 27 25 24 23 21 22 22 21 21 21 21 19 18 18 17 17 16 16 14 13 11 10 10 10 10 10 13 13 14
37 34 32 30 27 25 25 24 24 25 25 24 24 22 20 20 19 18 18 18 16 15 13 14 10 11 11 12 13 12 15 14
38 35 35 32 30 28 27 27 26 26 26 25 24 24 22 22 21 21 21 22 20 15 17 17 13 11 11 13 14 14 14 15
39 38 37 35 32 29 27 28 28 26 26 27 26 26 24 23 24 24 24 26 22 18 20 17 14 11 11 13 15 13 14 15
42 40 39 37 34 31 28 28 29 27 25 26 27 26 25 24 24 26 26 26 23 20 22 20 15 13 12 14 17 16 15 16
43 43 41 39 36 33 30 27 27 27 26 24 26 26 25 24 25 26 26 25 23 21 22 23 17 15 13 14 17 19 19 19
44 45 43 41 39 36 33 29 28 28 28 25 25 25 25 24 24 25 26 25 23 22 21 22 21 18 16 15 16 18 19 19
35 45 47 44 42 39 34 31 29 30 29 27 24 24 24 24 24 24 25 24 24 24 23 23 23 21 19 19 18 17 19 20
35 43 49 47 44 40 34 33 32 32 30 28 25 24 25 25 25 24 23 23 25 26 25 25 24 23 22 22 21 20 19 20
38 37 49 49 46 41 37 36 35 34 31 30 28 26 25 26 26 25 24 24 24 26 27 26 25 24 24 23 24 23 22 22
35 40 47 50 49 45 41 40 38 36 34 32 30 28 26 26 27 27 26 26 25 25 27 27 26 25 23 24 25 25 23 25
30 36 41 50 48 47 42 35 36 36 36 35 33 30 28 27 27 28 28 27 27 28 29 29 27 27 25 23 19 23 26 25
35 36 39 45 47 43 37 34 36 37 38 37 35 32 31 30 29 28 28 29 30 31 30 31 28 28 28 22 10 13 15 20
33 35 32 36 42 39 38 37 37 36 38 38 38 35 33 32 29 28 28 30 31 32 31 31 31 31 27 29 29 24 10 10
17 30 31 32 32 36 37 36 37 36 36 37 39 37 36 32 31 30 30 30 32 33 32 32 31 30 31 30 30 30 31 25
14 17 25 27 31 29 31 33 36 36 38 37 35 37 38 35 32 32 30 30 32 33 32 33 33 32 34 35 33 31 33 33
13 15 16 19 25 27 29 31 32 33 37 37 37 35 37 38 35 34 32 30 31 32 31 34 35 37 36 35 34 34 34 31
12 13 12 11 16 20 25 27 31 32 32 35 35 35 35 40 42 36 34 32 30 31 29 32 35 34 36 37 36 33 34 37

GFSFLT2_850_spd_123.txt.gz
Wind_Speed
12 17 24 22 21 19 18 18 17 16 16 17 18 19 19 18 17 15 15 14 13 12 11 11 10 9 9 8 7 8 7 9
12 14 22 24 23 22 20 19 18 17 17 18 19 19 19 19 18 16 16 15 14 13 12 11 10 9 8 7 7 9 10 7
14 16 17 19 19 24 23 22 20 19 19 20 20 21 21 20 19 17 17 16 14 12 12 12 11 10 9 9 9 9 11 10
15 17 20 19 19 19 25 25 24 23 23 24 24 20 18 18 17 19 18 17 15 14 14 12 12 9 11 11 11 9 11 11
15 19 26 27 22 22 19 19 20 21 22 23 24 20 22 20 22 22 20 18 16 16 16 15 11 12 10 8 9 9 7 11
15 20 28 29 29 22 24 22 21 21 23 26 24 25 23 23 19 18 20 19 15 17 15 13 13 12 10 9 9 9 9 12
21 20 25 25 34 24 25 26 28 21 23 29 26 25 24 21 20 20 22 18 18 17 17 16 17 17 13 14 11 9 9 9
23 22 26 27 28 29 26 26 25 34 29 28 30 28 24 21 21 20 21 20 22 19 19 16 14 13 13 12 11 11 10 10
27 27 24 29 29 29 27 26 28 32 33 31 31 30 27 23 23 23 22 21 22 21 21 17 16 15 14 13 13 13 12 11
32 28 27 32 35 31 31 27 29 32 35 35 34 31 32 28 22 23 21 24 24 23 21 18 19 18 14 14 12 11 11 12
33 33 31 28 35 34 35 32 29 30 31 36 36 37 34 30 25 30 23 25 28 23 19 17 19 19 17 15 15 13 13 13
32 34 33 34 38 35 34 33 31 27 28 27 35 38 37 35 34 30 31 29 28 24 22 20 18 19 15 16 17 17 15 16
35 35 32 30 30 37 38 38 34 33 30 30 32 37 39 38 36 34 32 31 29 28 28 23 21 19 16 21 17 21 22 19
23 27 27 32 36 42 40 38 36 36 34 34 31 33 38 40 38 36 34 33 31 29 29 28 23 22 18 15 14 18 22 24
21 26 28 34 33 40 40 37 36 37 36 35 36 33 35 39 38 36 34 34 33 33 31 31 27 27 26 17 9 15 12 12
32 28 28 36 41 32 46 44 43 40 37 36 34 35 35 37 39 37 35 33 33 34 32 32 31 32 29 33 24 15 12 12
27 26 24 37 46 37 45 48 41 39 37 35 35 35 31 33 38 38 35 33 32 34 34 34 32 32 33 27 30 23 23 23
18 12 22 33 36 38 42 48 40 37 36 34 35 33 32 29 31 36 35 32 33 35 35 33 33 32 34 28 23 23 27 24
12 9 10 21 13 31 34 41 41 38 35 32 34 32 28 30 27 27 33 32 32 33 34 35 33 34 33 34 28 28 25 23
14 10 2 13 8 13 23 37 40 33 33 5 23 20 19 23 26 27 29 29 31 32 32 33 33 31 31 30 30 30 29 27

GFSFLT2_850_spd_126.txt.gz
Wind_Speed
13 16 13 21 19 17 16 14 13 13 13 14 15 16 17 17 16 14 14 12 12 11 9 9 8 7 6 5 4 6 6 1
9 17 14 21 21 19 19 17 15 14 14 14 16 17 18 18 17 17 15 14 13 12 10 10 9 8 7 6 7 8 9 4
12 14 17 16 22 22 21 20 18 17 16 17 17 20 20 20 19 18 17 15 15 13 12 11 10 9 8 8 8 8 9 8
17 13 17 16 18 20 23 24 22 21 20 20 20 21 22 21 21 20 18 17 17 15 14 12 11 10 9 9 8 6 11 11
16 18 15 20 16 20 22 25 27 25 24 23 23 23 19 18 19 21 21 20 19 17 16 15 12 5 4 6 8 7 6 7
18 17 21 21 26 21 21 22 27 28 27 25 24 25 23 22 24 23 23 22 20 19 17 16 13 13 12 9 8 8 8 8
23 22 22 26 26 28 28 22 25 24 24 27 27 27 27 27 28 23 20 20 20 18 17 16 14 14 15 12 10 8 10 11
32 27 22 26 30 29 32 29 27 25 26 27 29 30 31 27 29 23 24 22 18 18 17 17 17 19 16 13 11 10 9 11
31 30 27 25 28 29 25 27 30 33 27 33 29 33 34 30 26 27 24 25 23 22 20 18 18 16 14 14 12 12 10 12
30 32 34 34 24 33 35 35 32 35 41 37 31 37 35 29 26 28 26 22 25 24 23 21 20 18 17 14 13 11 10 12
30 30 33 35 34 29 33 32 35 39 40 43 40 36 37 35 30 27 28 25 25 26 26 25 23 20 19 16 14 13 13 13
28 24 28 28 33 31 36 40 41 38 42 38 38 38 37 41 37 26 29 29 29 30 28 24 23 21 20 18 17 17 15 16
27 22 21 26 36 29 32 41 41 40 40 41 39 41 41 39 41 34 35 27 29 33 29 26 25 20 18 18 18 20 20 20
32 26 22 21 22 25 23 33 43 47 39 40 38 37 42 43 42 42 40 41 34 31 32 28 25 25 24 20 17 20 25 26
37 36 31 27 25 28 31 28 38 46 42 41 42 43 37 41 44 44 40 37 35 33 33 30 31 28 26 20 9 12 15 17
37 37 36 36 35 30 34 38 34 46 44 42 42 46 43 39 43 43 42 39 37 35 32 34 29 31 30 32 20 12 7 6
31 36 32 33 38 40 50 50 50 33 46 42 44 45 45 41 38 43 42 41 39 36 35 34 34 31 35 34 34 29 21 17
29 26 27 27 35 40 44 49 58 46 51 46 49 45 44 41 37 43 42 40 38 36 35 34 33 33 32 33 34 28 31 27
23 20 20 20 23 26 32 44 47 51 52 52 50 47 44 39 36 41 41 39 36 35 35 34 34 33 31 31 26 27 21 20
23 22 17 11 10 13 24 29 25 32 55 18 50 45 37 31 28 26 36 35 33 33 34 35 34 34 32 29 27 28 27 29

GFSFLT2_850_spd_132.txt.gz
Wind_Speed
16 14 14 15 14 15 18 18 17 16 16 16 16 16 16 17 17 17 15 13 12 11 11 10 11 11 10 12 13 11 12 9
18 11 15 16 14 15 19 20 20 18 18 18 18 17 18 18 18 18 17 15 13 12 12 11 12 12 11 12 13 13 13 9
16 14 13 18 19 16 14 22 22 21 20 20 20 20 20 20 20 19 18 16 15 14 14 13 13 12 12 13 13 14 13 7
12 13 19 19 17 20 19 19 24 24 23 22 22 21 22 22 22 21 20 18 16 16 16 15 14 13 13 13 13 14 14 11
16 17 16 15 20 20 22 22 23 26 26 25 24 24 24 24 24 24 23 21 19 19 19 18 16 15 14 12 13 13 11 11
22 23 25 24 21 15 22 26 26 25 24 28 28 28 27 27 27 27 26 25 23 22 21 18 17 16 15 15 14 13 10 8
22 26 27 30 28 23 20 25 28 29 29 26 29 31 31 30 30 30 28 27 26 25 23 21 19 19 18 15 12 12 11 10
21 22 27 29 31 27 27 25 24 30 33 33 28 33 34 34 33 32 31 29 28 27 25 23 21 22 21 18 14 13 12 11
33 29 26 32 32 31 29 30 30 29 32 36 34 28 36 36 37 36 32 30 27 27 26 23 23 24 22 20 16 18 15 13
36 38 39 35 38 37 33 30 32 32 31 34 38 37 33 37 40 40 36 32 29 28 28 27 27 28 24 21 20 20 18 16
40 40 39 41 39 41 37 32 25 33 33 31 37 41 40 35 41 42 39 35 33 30 28 30 29 27 23 22 23 21 18 16
38 41 44 41 40 41 44 37 32 26 30 33 34 40 42 40 38 42 41 38 37 34 31 31 29 27 23 25 23 22 20 18
40 41 42 44 37 38 42 43 39 32 31 34 34 36 42 43 44 42 44 42 39 38 35 34 32 29 26 26 25 24 24 22
43 42 41 40 34 31 36 39 41 40 30 36 34 38 35 42 45 46 46 45 42 42 40 38 36 33 34 27 23 26 27 26
43 41 41 39 34 32 32 34 41 38 36 33 33 32 40 35 49 49 47 46 46 45 43 41 41 38 38 25 18 16 26 30
39 39 39 38 33 34 30 33 37 37 39 37 39 32 35 41 38 48 51 49 50 47 44 42 42 42 39 40 27 17 16 16
37 36 36 35 33 30 30 32 32 34 39 41 38 40 32 39 45 39 55 54 55 50 49 46 47 43 44 40 38 27 21 18
36 35 35 36 33 31 27 28 31 33 37 41 40 40 43 36 40 43 53 51 57 57 52 50 49 46 44 42 44 38 31 25
37 36 35 34 30 26 23 24 26 28 27 35 38 39 41 37 35 35 46 31 54 55 53 49 48 48 44 44 42 45 41 35
36 33 35 32 27 23 21 20 23 26 24 27 32 32 34 25 29 32 31 39 55 54 55 51 50 48 45 42 41 41 39 39

GFSFLT2_850_spd_135.txt.gz
Wind_Speed
12 7 12 12 12 11 12 16 18 17 16 15 14 15 16 17 17 17 16 14 13 12 12 12 12 14 14 13 11 11 11 8
8 6 3 6 10 13 14 14 19 20 19 18 17 18 18 18 19 19 18 16 15 14 14 13 14 15 14 14 13 12 12 9
10 9 8 8 9 6 11 15 16 21 21 21 21 20 21 21 22 21 21 19 17 16 15 15 15 16 15 15 14 13 13 12
14 13 13 12 13 15 12 11 18 19 23 24 24 23 23 23 23 23 23 22 20 18 17 17 17 17 17 16 16 14 13 13
18 19 20 20 18 17 16 17 16 20 24 25 27 26 25 26 26 26 27 26 24 22 20 21 19 18 18 17 17 15 13 13
21 22 22 24 25 24 22 20 19 20 22 28 29 30 29 29 30 30 30 30 27 25 24 22 20 19 19 18 18 16 15 13
20 24 25 25 26 29 28 25 26 24 24 25 29 32 33 32 33 32 33 32 30 28 27 24 23 22 21 21 19 18 16 13
21 24 27 28 30 31 33 33 30 32 28 28 27 32 36 35 36 36 36 35 33 31 29 26 25 23 23 22 20 19 16 13
29 30 33 37 38 36 36 39 37 35 37 33 32 28 35 40 39 39 39 38 35 33 31 28 27 25 26 24 22 19 14 16
35 37 39 41 42 42 43 43 44 40 36 40 35 33 32 37 40 42 41 40 38 36 34 33 30 29 29 29 26 23 20 16
39 40 41 43 44 43 44 45 44 45 40 36 38 36 33 33 40 42 43 42 41 38 37 36 34 33 31 31 29 26 24 20
39 40 41 41 43 44 42 42 44 44 43 37 33 38 37 32 36 40 46 42 44 42 40 37 37 34 33 33 29 28 26 23
41 42 41 41 40 40 42 41 41 39 42 40 36 34 34 33 34 36 48 45 45 46 42 38 37 34 33 33 30 28 28 26
40 39 40 40 39 39 40 40 40 39 38 40 39 35 32 33 32 39 39 47 47 47 45 43 39 38 40 32 29 29 31 31
40 39 39 39 40 41 40 39 39 37 37 37 35 38 36 31 35 39 44 56 49 48 47 47 45 41 41 27 22 17 29 33
38 37 38 38 38 40 40 39 41 39 36 34 33 36 39 33 30 38 37 32 49 51 46 48 48 43 44 43 31 23 19 21
37 37 38 35 35 35 35 37 37 36 36 35 36 37 37 34 31 33 33 46 23 48 46 48 49 47 47 47 40 30 26 25
36 37 37 36 35 35 32 33 33 33 33 33 33 34 34 36 32 29 27 33 49 38 47 47 50 51 47 49 50 42 36 32
37 38 38 36 34 34 32 30 28 28 28 28 28 28 28 33 28 25 27 21 30 47 30 46 49 51 50 49 49 49 44 36
35 36 36 36 35 35 32 29 27 26 27 26 26 28 26 23 21 18 18 22 26 43 53 43 48 51 51 49 47 48 47 44

GFSFLT2_850_spd_138.txt.gz
Wind_Speed
5 3 4 4 4 3 3 6 10 11 12 13 14 15 16 17 17 17 17 16 15 14 14 14 14 15 15 13 12 12 11 12
5 7 7 8 7 8 7 8 6 9 13 15 15 17 18 19 19 20 19 19 18 16 16 15 15 16 16 14 13 13 13 13
9 10 11 12 13 12 10 8 10 11 12 15 17 19 20 21 22 22 22 22 21 19 18 17 17 17 18 16 15 14 14 13
12 14 14 14 15 15 15 14 14 15 15 15 17 21 22 22 24 24 25 24 23 22 20 19 19 19 19 19 17 16 15 15
15 16 17 18 17 15 14 17 18 17 18 20 19 22 23 24 26 27 28 27 27 25 24 23 22 21 21 20 18 17 16 16
19 19 18 20 22 22 21 20 19 20 20 22 23 23 26 27 29 29 30 31 31 29 28 26 24 23 22 21 20 19 17 16
18 20 23 22 22 24 25 27 28 25 25 22 24 25 25 27 31 32 32 33 34 33 32 30 27 26 25 24 23 21 19 18
24 24 26 28 31 32 35 38 35 32 31 30 28 28 27 27 29 34 35 35 36 36 36 34 30 28 27 26 25 23 21 19
29 31 33 33 35 38 41 42 43 42 37 36 36 34 31 31 33 32 38 37 37 38 38 37 33 31 30 28 27 25 24 22
33 34 36 38 40 42 42 43 44 45 45 40 38 39 35 32 36 39 34 41 41 40 42 40 38 35 33 31 30 27 25 22
35 37 38 40 40 41 42 43 41 42 43 44 38 38 39 37 35 35 39 38 47 43 43 43 41 38 36 33 32 30 27 24
36 36 37 38 38 38 39 39 39 38 36 39 37 37 37 40 39 36 36 38 47 46 45 44 44 43 38 35 35 34 31 29
37 38 37 38 39 42 42 42 42 42 38 34 35 32 35 40 39 36 31 44 47 47 47 45 44 44 39 37 36 36 35 33
38 38 38 38 40 41 40 42 43 43 42 34 34 28 30 38 38 38 34 35 48 47 49 43 44 45 44 37 26 36 37 36
39 38 38 38 39 41 42 43 43 41 39 38 33 29 28 33 38 36 31 28 35 50 43 48 42 43 45 28 19 19 34 37
37 37 38 39 39 40 40 40 41 41 40 38 33 32 30 33 37 36 32 25 30 39 38 63 47 41 44 45 32 26 22 22
35 35 38 39 39 37 36 35 35 36 36 36 33 35 31 30 31 34 31 20 26 31 40 44 57 46 51 50 39 35 28 24
33 37 38 39 39 36 34 33 33 33 33 33 31 31 32 28 26 30 29 22 17 32 33 49 35 44 49 51 55 43 39 33
35 36 39 38 38 36 35 33 31 29 29 29 33 32 28 28 25 22 23 21 19 17 30 39 50 40 49 50 51 53 47 41
34 35 37 38 36 35 35 33 30 28 27 28 30 32 28 25 23 22 19 20 19 19 19 26 43 27 36 46 48 49 52 43

GFSFLT2_850_spd_141.txt.gz
Wind_Speed
5 4 5 5 6 7 8 8 9 8 10 11 12 15 17 18 18 18 18 17 16 15 15 15 16 16 15 15 14 13 13 13
6 7 8 8 9 9 9 11 12 10 11 11 13 14 17 19 21 21 21 20 20 18 17 16 17 18 17 17 16 14 14 14
7 8 10 11 11 10 9 8 9 11 13 13 14 16 17 19 22 23 23 23 23 20 19 19 19 20 19 18 17 17 16 16
11 10 10 10 12 12 11 11 11 11 12 13 14 18 20 20 23 23 25 25 25 24 22 21 21 23 22 21 21 19 18 17
14 15 14 13 13 14 13 13 13 14 15 16 17 16 18 20 23 25 26 26 28 27 26 26 25 25 25 24 23 20 20 19
19 21 21 20 20 20 19 19 18 19 20 22 21 23 21 19 23 26 27 29 31 32 31 30 28 28 27 26 25 23 22 21
18 20 22 25 27 27 28 29 30 29 28 27 27 26 26 26 23 24 28 31 33 36 35 34 32 31 30 29 28 26 23 23
20 21 22 24 26 30 32 34 36 37 36 33 31 32 32 31 30 28 26 31 34 37 39 38 36 33 32 32 30 28 26 25
25 26 28 29 31 32 33 34 36 38 39 38 34 34 35 36 36 35 34 30 34 38 41 42 41 38 35 34 33 31 29 27
29 31 32 33 34 35 36 36 37 36 37 38 37 34 34 37 40 41 38 33 35 35 41 45 45 41 39 38 36 34 31 29
29 30 31 32 33 34 34 34 35 35 34 34 34 33 32 35 39 43 44 41 35 38 37 46 45 45 41 40 38 36 34 31
29 31 33 34 35 34 34 33 33 33 34 33 31 33 29 30 37 42 46 44 40 35 40 41 48 47 43 41 40 38 36 34
31 33 33 35 36 37 37 36 34 33 33 34 30 29 30 27 32 37 41 42 41 33 42 40 51 46 41 38 41 41 38 37
31 33 33 33 34 36 35 37 36 35 32 30 30 28 29 27 29 35 32 34 39 36 39 39 40 45 46 33 24 33 40 42
31 32 34 34 35 37 37 37 34 33 32 31 29 27 26 27 28 31 32 32 40 41 31 39 45 42 58 30 20 18 31 36
29 32 35 36 38 38 37 35 37 37 36 32 29 25 26 25 26 29 34 31 32 34 33 38 40 53 46 46 27 22 22 18
29 32 35 37 38 34 31 33 35 35 33 32 28 25 23 23 24 26 28 29 34 33 33 32 32 48 46 32 44 36 28 24
29 31 34 37 37 32 30 32 33 34 34 32 31 31 29 23 21 22 25 24 29 32 34 32 34 36 50 39 53 42 37 32
28 29 33 36 37 36 32 31 33 31 31 30 31 31 31 26 22 21 22 19 26 28 31 34 29 34 46 42 37 47 42 40
26 28 30 34 38 38 33 30 32 31 28 27 26 26 28 26 24 23 21 18 24 29 27 29 30 34 45 38 42 35 45 45